Weather in Selo Sanatoriya Glukhovskogo

Russia / Republic of Bashkortostan     53°59′42″N   54°20′01″E
temp.,
°C
wind,
m/s
gust,
m/s
humid.,
%
clouds,
%
prec.,
mm/h
press.,
hPa
HPBL,
m
28 february, sun
sun2823:00−5se5896100 2.3 999267
02:00−2s4798100 1.4 997324
05:00−1sw2399100 2.8 998127
08:00−4wnw239898 0.5 99853
11:00−5nw359689 0.6 999235
14:00−6nnw569590 0.1 1001317
17:00−9nnw579495 0.1 1003328
20:00−12nnw499599 0.1 1006274
1 march, mon
mon123:00−15nw349897 0.1 100965
02:00−15nw359696 0.1 1011135
05:00−16nw349692 0.2 1013107
08:00−17nnw249788 0.1 1014121
11:00−15nnw349487 0.2 1017199
14:00−13nw349289 0.1 1018292
17:00−14nw359494 0.1 1019326
20:00−20nnw2310098 0.0 102020
2 march, tue
tue223:00−22wnw1210071 0.0 102120
02:00−23wsw2210046 0.0 102020
05:00−23sw3310067 0.0 101942
08:00−24ssw4710085 0.0 1017105
11:00−19ssw6109892 0.0 1015253
14:00−15ssw71396100 0.1 1012343
17:00−13ssw81494100 0.4 1010493
20:00−12ssw81594100 0.7 1008588
3 march, wed
wed323:00−9ssw81594100 1.3 1006569
02:00−6ssw71395100 0.8 1003591
05:00−5ssw61295100 1.6 1001497
08:00−6ssw51096100 0.4 999344
11:00−5sw4795100 0.8 999315
14:00−3wsw469499 0.1 999457
17:00−4wnw689299 0.3 1000663
20:00−7wnw51194100 0.1 1001515
4 march, thu
thu423:00−8wnw5119599 0.3 1003385
02:00−9wnw489798 0.1 1004199
05:00−9nw5109595 0.3 1006321
08:00−14nw4999100 0.0 1008144
11:00−11nw599496 0.1 1010440
14:00−8wnw5890100 0.1 1012689
17:00−8wnw5791100 0.2 1013673
20:00−13w4798100 0.1 1014131